[[{"header":{"parameterUnit":"m.s-1","parameterCategory":1,"la1":30.2991,"la2":30.254,"lo1":-89.0895,"lo2":-89.0444,"dy":0.0017,"dx":0.0017,"nx":28,"ny":28,"refTime":"2025-04-16T09:00:00:Z","depth":0,"parameterNumber":2,"parameterNumberName":"U-component_of_WINDS"},"data":[0,0,0,0,0,0,0,0,0,0,0,0,0,0,0,0,0,0,0,0,0,0,0,0,0,0,0,0,0,0,0,0,0,0,0,0,0,0,0,0,0,0,0,0,0,0,0,0,0,0,0,0,0,0,0,0,0,0,-1.2564,-1.2564,0,-1.261,-1.2611,-1.2611,-1.2557,-1.2555,-1.2553,-1.2551,-1.2599,-1.2603,-1.2606,0,0,0,0,0,0,0,0,0,0,0,0,0,-1.2429,-1.2432,-1.2564,-1.2564,-1.2565,-1.261,-1.2611,-1.2611,-1.2558,-1.2555,-1.2553,-1.255,-1.2598,-1.2602,-1.2606,0,0,0,0,0,0,0,0,0,0,0,0,0,-1.2483,-1.2433,-1.2564,-1.2544,-1.2542,-1.261,-1.2611,-1.2611,-1.2558,-1.2555,-1.2552,-1.2549,-1.2597,-1.2602,-1.2606,-1.2696,0,0,-1.2621,-1.2623,0,0,0,0,0,0,0,0,-1.248,-1.2488,-1.2546,-1.2545,-1.2544,-1.2575,-1.2581,-1.264,-1.2559,-1.2552,-1.2551,-1.2548,-1.2594,-1.2599,-1.2614,-1.2699,-1.2701,-1.2621,-1.2624,-1.2626,-1.2628,0,0,0,0,0,0,0,-1.2476,-1.2485,-1.2582,-1.2547,-1.2545,-1.2532,-1.2537,-1.2592,-1.2589,-1.2552,-1.2549,-1.2555,-1.2593,-1.261,-1.2615,-1.2701,-1.2621,-1.2625,-1.2628,-1.263,-1.2862,-1.2865,0,0,0,0,0,0,-1.2475,-1.2483,-1.2581,-1.2583,-1.2504,-1.2537,-1.2542,-1.2568,-1.2589,-1.2589,-1.2557,-1.2552,-1.2603,-1.2609,-1.2616,-1.2723,-1.2626,-1.2631,-1.2633,-1.2859,-1.2863,-1.2866,0,0,0,0,0,0,-1.2472,-1.2484,-1.2579,-1.2532,-1.2543,-1.2543,-1.2572,-1.257,-1.2587,-1.2592,-1.2592,-1.2575,-1.2601,-1.2609,-1.2677,-1.2724,-1.2633,-1.2637,-1.2855,-1.286,-1.2864,-1.2938,0,0,0,0,0,0,-1.2468,-1.2483,-1.2517,-1.2533,-1.2546,-1.2639,-1.2575,-1.2573,-1.2596,-1.2589,-1.2609,-1.2609,-1.2599,-1.267,-1.2682,-1.2729,-1.2641,-1.2851,-1.2857,-1.2863,-1.2932,-1.2945,-1.2957,0,0,0,0,0,-1.2464,-1.2536,-1.252,-1.2532,-1.2589,-1.2642,-1.2649,-1.2636,-1.26,-1.2634,-1.2637,-1.2609,-1.2717,-1.2677,-1.269,-1.274,-1.2848,-1.2855,-1.2862,-1.2926,-1.2942,-1.2956,0,0,0,0,0,0,-1.2527,-1.2538,-1.252,-1.26,-1.262,-1.2633,-1.2676,-1.2653,-1.2685,-1.2678,-1.266,-1.2664,-1.2736,-1.2744,-1.27,-1.2827,-1.2776,-1.2787,-1.282,-1.2836,-1.2848,-1.2846,-1.2645,0,0,0,0,0,-1.255,-1.2592,-1.26,-1.267,-1.2681,-1.2677,-1.2699,-1.2687,-1.2708,-1.2716,-1.2724,-1.2745,-1.2784,-1.281,-1.2846,-1.2931,-1.2935,-1.2972,-1.2984,-1.2995,-1.3004,-1.3051,-1.3067,-1.2891,-1.2891,-1.2891,0,0,-1.2599,-1.261,-1.2638,-1.2683,-1.2697,-1.2741,-1.2684,-1.2733,-1.2766,-1.2724,-1.2788,-1.2794,-1.2817,-1.2894,-1.2928,-1.2903,-1.3053,-1.3004,-1.3012,-1.3016,-1.306,-1.3077,-1.3092,-1.2896,-1.2895,-1.2894,0,0,-1.271,-1.2722,-1.2782,-1.2798,-1.282,-1.2817,-1.2831,-1.2847,-1.2849,-1.2913,-1.2882,-1.2921,-1.2988,-1.3005,-1.3023,-1.3139,-1.3115,-1.3151,-1.3218,-1.3263,-1.3277,-1.3289,-1.3332,-1.3347,-1.316,-1.3161,-1.3161,0,-1.2768,-1.2833,-1.2816,-1.2868,-1.2888,-1.2851,-1.2912,-1.2927,-1.296,-1.2976,-1.2946,-1.3029,-1.3042,-1.3123,-1.3151,-1.3166,-1.3182,-1.315,-1.3276,-1.3288,-1.3299,-1.334,-1.3356,-1.3165,-1.3165,-1.3164,-1.3164,0,-1.2904,-1.2949,-1.2995,-1.3028,-1.3053,-1.3109,-1.3101,-1.3128,-1.3113,-1.3113,-1.3179,-1.3192,-1.323,-1.3248,-1.3234,-1.3327,-1.331,-1.3279,-1.3227,-1.3321,-1.3359,-1.3374,-1.3171,-1.317,-1.3169,-1.3167,0,0,-1.3058,-1.308,-1.3097,-1.3112,-1.3133,-1.3168,-1.3222,-1.3258,-1.3283,-1.3307,-1.3352,-1.3409,-1.338,-1.3399,-1.3387,-1.3426,-1.3519,-1.339,-1.339,-1.3415,-1.3623,-1.3648,-1.3666,-1.3502,-1.3504,-1.3507,-1.3622,0,-1.3171,-1.3265,-1.325,-1.3341,-1.3383,-1.3347,-1.3394,-1.3412,-1.3413,-1.3449,-1.3449,-1.349,-1.3448,-1.346,-1.3497,-1.35,-1.3561,-1.3491,-1.3544,-1.3546,-1.3542,-1.3686,-1.3712,-1.382,-1.3636,-1.3639,-1.364,0,-1.3315,-1.3344,-1.3439,-1.3454,-1.3471,-1.3513,-1.3546,-1.358,-1.36,-1.3597,-1.3619,-1.3599,-1.3653,-1.3599,-1.3673,-1.3626,-1.3646,-1.365,-1.3654,-1.366,-1.3601,-1.3697,-1.3854,-1.3871,-1.3663,-1.3661,-1.366,0,-1.342,-1.3483,-1.3547,-1.3561,-1.3579,-1.361,-1.3619,-1.3635,-1.3658,-1.3686,-1.3701,-1.3735,-1.3754,-1.378,-1.377,-1.3731,-1.3846,-1.3791,-1.3846,-1.3847,-1.3874,-1.3873,-1.4038,-1.3885,-1.3884,-1.3884,-1.3884,0,-1.3549,-1.3609,-1.3595,-1.3635,-1.3701,-1.3683,-1.3749,-1.3753,-1.3768,-1.3808,-1.3778,-1.3817,-1.38,-1.3837,-1.3829,-1.3892,-1.39,-1.39,-1.3898,-1.3904,-1.3904,-1.3919,-1.3912,-1.3888,-1.3887,-1.3886,-1.3886,0,-1.3678,-1.3671,-1.374,-1.3751,-1.3755,-1.3803,-1.3813,-1.385,-1.3848,-1.3899,-1.391,-1.3907,-1.3949,-1.3941,-1.3987,-1.3981,-1.4061,-1.4048,-1.4055,-1.4052,-1.4108,-1.4104,-1.429,-1.4314,-1.4144,-1.4145,-1.4147,0,-1.3762,-1.3807,-1.3823,-1.3848,-1.3859,-1.3899,-1.3922,-1.3906,-1.3931,-1.3957,-1.3991,-1.4031,-1.4062,-1.4131,-1.4132,-1.4168,-1.4156,-1.4219,-1.4162,-1.4167,-1.4159,-1.4157,-1.4162,-1.4231,-1.4233,-1.4235,-1.4236,0,-1.3911,-1.3905,-1.394,-1.3973,-1.4001,-1.4027,-1.405,-1.4072,-1.4057,-1.4087,-1.413,-1.4154,-1.4201,-1.424,-1.4273,-1.4282,-1.4257,-1.4254,-1.4269,-1.4277,-1.4279,-1.428,-1.4087,-1.425,-1.4249,-1.4248,-1.4247,-1.4246,-1.4021,-1.4059,-1.4077,-1.4116,-1.4131,-1.4153,-1.4189,-1.4191,-1.4226,-1.4263,-1.4251,-1.43,-1.4317,-1.4358,-1.4371,-1.4409,-1.4386,-1.4407,-1.4413,-1.4419,-1.4426,-1.4272,-1.4415,-1.4414,-1.4414,-1.4413,-1.4413,0,-1.417,-1.4179,-1.4215,-1.4248,-1.4279,-1.4252,-1.4275,-1.4303,-1.4346,-1.4365,-1.4395,-1.4444,-1.4482,-1.4487,-1.4522,-1.4552,-1.4542,-1.4562,-1.4561,-1.4563,-1.4444,-1.4429,-1.457,-1.457,-1.457,-1.457,-1.457,-1.457,-1.4251,-1.4315,-1.4311,-1.4382,-1.4391,-1.4438,-1.4454,-1.4474,-1.4489,-1.4545,-1.4576,-1.4578,-1.4591,-1.4627,-1.4661,-1.4661,-1.4676,-1.4702,-1.4698,-1.4587,-1.4572,-1.4557,-1.4542,-1.4705,-1.4705,-1.4813,-1.4814,-1.4815]},{"header":{"parameterUnit":"m.s-1","parameterCategory":1,"la1":30.2991,"la2":30.254,"lo1":-89.0895,"lo2":-89.0444,"dy":0.0017,"dx":0.0017,"nx":28,"ny":28,"refTime":"2025-04-16T09:00:00:Z","depth":0,"parameterNumber":3,"parameterNumberName":"V-component_of_WINDS"},"data":[0,0,0,0,0,0,0,0,0,0,0,0,0,0,0,0,0,0,0,0,0,0,0,0,0,0,0,0,0,0,0,0,0,0,0,0,0,0,0,0,0,0,0,0,0,0,0,0,0,0,0,0,0,0,0,0,0,0,-5.0733,-5.0734,0,-5.0787,-5.0787,-5.0788,-5.0699,-5.0696,-5.0693,-5.069,-5.074,-5.0744,-5.0748,0,0,0,0,0,0,0,0,0,0,0,0,0,-5.055,-5.0554,-5.0733,-5.0734,-5.0735,-5.0786,-5.0787,-5.0788,-5.0699,-5.0696,-5.0692,-5.0689,-5.0739,-5.0744,-5.0749,0,0,0,0,0,0,0,0,0,0,0,0,0,-5.0619,-5.0555,-5.0733,-5.0697,-5.0694,-5.0786,-5.0787,-5.0788,-5.07,-5.0696,-5.0691,-5.0687,-5.0737,-5.0743,-5.0749,-5.0878,0,0,-5.0768,-5.0771,0,0,0,0,0,0,0,0,-5.0616,-5.0626,-5.0702,-5.07,-5.0697,-5.0732,-5.0741,-5.0818,-5.0701,-5.0698,-5.069,-5.0685,-5.0741,-5.0746,-5.0766,-5.0881,-5.0883,-5.0769,-5.0773,-5.0775,-5.0777,0,0,0,0,0,0,0,-5.0611,-5.0623,-5.0754,-5.0703,-5.07,-5.0676,-5.0681,-5.0755,-5.0744,-5.0698,-5.0691,-5.0699,-5.0738,-5.076,-5.0767,-5.0883,-5.0769,-5.0774,-5.0778,-5.0781,-5.1105,-5.111,0,0,0,0,0,0,-5.0611,-5.062,-5.0753,-5.0756,-5.0644,-5.0683,-5.0689,-5.0725,-5.0743,-5.0741,-5.0703,-5.0695,-5.0752,-5.0759,-5.0768,-5.0919,-5.0775,-5.0781,-5.0785,-5.11,-5.1106,-5.1111,0,0,0,0,0,0,-5.0608,-5.0624,-5.075,-5.0686,-5.0701,-5.0691,-5.0733,-5.0728,-5.075,-5.0747,-5.0744,-5.0728,-5.0749,-5.0759,-5.0851,-5.092,-5.0784,-5.079,-5.1094,-5.1102,-5.1109,-5.1224,0,0,0,0,0,0,-5.0603,-5.0623,-5.0673,-5.0688,-5.0704,-5.0835,-5.0737,-5.0733,-5.0762,-5.0751,-5.0769,-5.0768,-5.0746,-5.0843,-5.0858,-5.0926,-5.0795,-5.1088,-5.1098,-5.1106,-5.1214,-5.1234,-5.1252,0,0,0,0,0,-5.0597,-5.0703,-5.0676,-5.0693,-5.0767,-5.0839,-5.0848,-5.0822,-5.0768,-5.0817,-5.0814,-5.0767,-5.091,-5.0853,-5.0869,-5.094,-5.1084,-5.1095,-5.1106,-5.1205,-5.123,-5.1251,0,0,0,0,0,0,-5.0695,-5.0704,-5.0675,-5.0789,-5.0814,-5.0824,-5.0886,-5.0849,-5.0889,-5.0878,-5.0842,-5.0847,-5.0946,-5.0952,-5.0888,-5.1065,-5.0987,-5.1002,-5.1058,-5.1081,-5.11,-5.1096,-5.08,0,0,0,0,0,-5.073,-5.079,-5.0794,-5.0894,-5.0908,-5.0895,-5.0925,-5.0903,-5.0927,-5.0937,-5.0941,-5.0965,-5.1014,-5.1048,-5.1094,-5.1214,-5.1216,-5.1271,-5.129,-5.1305,-5.1318,-5.1381,-5.1405,-5.1147,-5.1147,-5.1147,0,0,-5.0803,-5.0816,-5.0855,-5.0914,-5.0931,-5.0992,-5.0905,-5.0972,-5.1016,-5.0946,-5.1034,-5.1038,-5.1062,-5.1169,-5.1216,-5.1177,-5.139,-5.1319,-5.1332,-5.1336,-5.1395,-5.1419,-5.1441,-5.1155,-5.1153,-5.1152,0,0,-5.0967,-5.0983,-5.1069,-5.1087,-5.1114,-5.1104,-5.1125,-5.114,-5.1141,-5.1228,-5.1177,-5.1228,-5.1315,-5.1334,-5.1355,-5.1526,-5.1483,-5.1541,-5.164,-5.1701,-5.1722,-5.174,-5.18,-5.1822,-5.1554,-5.1555,-5.1555,0,-5.1054,-5.1145,-5.1117,-5.1189,-5.1215,-5.1156,-5.1241,-5.126,-5.13,-5.1319,-5.1275,-5.1383,-5.1395,-5.1505,-5.1546,-5.1566,-5.1587,-5.1539,-5.1721,-5.1739,-5.1755,-5.1812,-5.1835,-5.1561,-5.1561,-5.156,-5.1559,0,-5.125,-5.1314,-5.1379,-5.1421,-5.1455,-5.1533,-5.1515,-5.1553,-5.1528,-5.1522,-5.1611,-5.1623,-5.167,-5.1695,-5.167,-5.1801,-5.1776,-5.1728,-5.1649,-5.1787,-5.184,-5.1862,-5.1571,-5.1569,-5.1567,-5.1565,0,0,-5.1478,-5.1503,-5.1528,-5.1545,-5.157,-5.1618,-5.1692,-5.174,-5.1772,-5.1802,-5.1862,-5.1937,-5.1893,-5.1917,-5.1893,-5.1948,-5.2081,-5.1892,-5.1892,-5.1926,-5.2225,-5.2261,-5.2287,-5.2053,-5.2057,-5.2061,-5.2223,0,-5.1641,-5.1772,-5.1748,-5.1874,-5.1932,-5.1876,-5.1941,-5.1962,-5.1959,-5.2006,-5.2001,-5.2055,-5.1992,-5.2006,-5.2057,-5.2054,-5.2141,-5.2042,-5.2108,-5.2111,-5.2104,-5.2315,-5.2354,-5.2506,-5.2243,-5.2247,-5.2249,0,-5.1849,-5.1887,-5.202,-5.2035,-5.2059,-5.2118,-5.2158,-5.2205,-5.2227,-5.222,-5.2248,-5.2214,-5.2286,-5.2207,-5.2305,-5.2239,-5.2264,-5.2267,-5.2272,-5.2277,-5.2189,-5.2325,-5.2554,-5.2577,-5.2282,-5.2279,-5.2277,0,-5.2001,-5.2086,-5.2176,-5.2193,-5.2213,-5.2256,-5.2266,-5.2284,-5.2313,-5.2349,-5.2367,-5.241,-5.2433,-5.2466,-5.2444,-5.2389,-5.2547,-5.2465,-5.2542,-5.2543,-5.2578,-5.2576,-5.2814,-5.2595,-5.2595,-5.2594,-5.2594,0,-5.2185,-5.2269,-5.2245,-5.23,-5.2391,-5.2362,-5.2452,-5.2455,-5.2472,-5.2526,-5.2479,-5.253,-5.2499,-5.2547,-5.253,-5.2614,-5.2624,-5.262,-5.2615,-5.2625,-5.2625,-5.264,-5.2629,-5.26,-5.2599,-5.2598,-5.2597,0,-5.2371,-5.2359,-5.2453,-5.2465,-5.2469,-5.2536,-5.2545,-5.2596,-5.2589,-5.2657,-5.2672,-5.266,-5.2715,-5.2696,-5.2754,-5.2742,-5.2849,-5.283,-5.2842,-5.2837,-5.2915,-5.2908,-5.3171,-5.3203,-5.2964,-5.2966,-5.2968,0,-5.249,-5.2553,-5.2571,-5.2605,-5.2618,-5.2673,-5.2703,-5.2676,-5.2709,-5.2739,-5.2786,-5.2837,-5.2875,-5.2964,-5.296,-5.3004,-5.2985,-5.3074,-5.2991,-5.2999,-5.2986,-5.2982,-5.2988,-5.3091,-5.3094,-5.3096,-5.3098,0,-5.2701,-5.2692,-5.2738,-5.2782,-5.282,-5.2853,-5.2882,-5.2912,-5.2886,-5.2925,-5.2981,-5.3011,-5.3071,-5.3121,-5.316,-5.3168,-5.3129,-5.3124,-5.3144,-5.3154,-5.3159,-5.3157,-5.2887,-5.3118,-5.3116,-5.3114,-5.3113,-5.3113,-5.2856,-5.2909,-5.2931,-5.2984,-5.3003,-5.303,-5.3079,-5.3078,-5.3125,-5.3172,-5.3152,-5.3216,-5.3235,-5.3284,-5.3298,-5.3346,-5.3312,-5.3341,-5.3348,-5.3356,-5.3365,-5.3152,-5.3353,-5.3353,-5.3352,-5.3352,-5.3351,0,-5.3065,-5.3076,-5.3125,-5.3167,-5.3208,-5.3169,-5.3198,-5.3235,-5.3292,-5.3314,-5.3354,-5.3417,-5.3465,-5.3465,-5.351,-5.3548,-5.3531,-5.3561,-5.3557,-5.356,-5.3394,-5.3372,-5.3574,-5.3574,-5.3574,-5.3574,-5.3574,-5.3574,-5.3178,-5.3266,-5.3259,-5.3355,-5.3364,-5.3428,-5.3448,-5.3473,-5.349,-5.3564,-5.3604,-5.3604,-5.3617,-5.3661,-5.3703,-5.3702,-5.372,-5.3757,-5.3748,-5.3594,-5.3572,-5.355,-5.353,-5.3761,-5.3761,-5.391,-5.3911,-5.3912]}]]